Tracking 28091 objects as of 29-Sep-2023
HD Live streaming from Space Station
objects crossing your sky now

COSMOS 970 DEB

Track COSMOS 970 DEB now!
10-day predictions


NORAD ID: 14907
Int'l Code: 1977-121BL
Perigee: 1,005.7 km
Apogee: 1,121.1 km
Inclination: 66.0 °
Period: 106.3 minutes
Semi major axis: 7434 km
RCS: 0.0067 m2 (small)
Launch date: December 21, 1977
Source: Commonwealth of Independent States (former USSR) (CIS)
Launch site: TYURATAM MISSILE AND SPACE COMPLEX (TTMTR)

Note: This is SATELLITE DEBRIS
Your satellite tracking list
Your tracking list is empty




NASA's NSSDC Master Catalog

Two Line Element Set (TLE):
1 14907U 77121BL  23271.61788799  .00000175  00000-0  35973-3 0  9992
2 14907  66.0278 179.0391 0077597 229.1902 208.3582 13.54349673 66906
Source of the keplerian elements: AFSPC